Retour au catalogue

CZ-6A DEB

ActifPO
NORAD 60703·DEBRIS·🇨🇳 China

Lancé Aug 6, 2024 depuis Taiyuan Satellite Launch Center

Loading…

Prochains Passages (prochaines 24 heures)

TLE

FraisSource: Space-Track

Époque: Sep 14, 2026, 08:55 UTC

1 60703U 24140DG  26257.37159966  .00000187  00000-0  65771-4 0  9991
2 60703  89.4080 300.8198 0111436 143.9532 216.9244 14.27510853108765

Suivez CZ-6A DEB en temps réel avec AllMySat

Download on the App Store